Home   Weather   Stockport   Past weeks
Flag for United Kingdom

Past Weather in Stockport, England, United Kingdom — Yesterday and Last 2 Weeks

Now
37 °F

Chilly.


Feels Like: 28 °F
Forecast: 43 / 33 °F
Wind: 17 mph from Northeast

Location: Manchester Airport

Current Time: Mar 29, 2020 at 5:15:57 am

Latest Report: Mar 29, 2020 at 4:20 am


Visibility: N/A

Pressure: 30.74 "Hg

Humidity: 56%

Dew Point: 23 °F

Location of StockportLocation

Past Weather in Stockport — Graph

°F

Stockport Temperature Yesterday

Maximum temperature yesterday: 50 °F (at 11:50 am)
Minimum temperature yesterday: 37 °F (at 12:20 am)
Average temperature yesterday: 44 °F

High & Low Weather Summary for the Past Weeks

 TemperatureHumidityPressure
High63 °F (Mar 25, 2:50 pm)100% (Mar 14, 7:20 am)30.74 "Hg (Mar 14, 7:20 am)
Low30 °F (Mar 23, 5:50 am)16% (Mar 26, 1:20 pm)29.53 "Hg (Mar 15, 3:50 am)
Average45 °F67%30.23 "Hg
* Reported Mar 14 2:20 am — Mar 29 3:50 am, Stockport. Weather by CustomWeather, © 2020

Note: Actual official high and low records may vary slightly from our data, if they occured in-between our weather recording intervals... More about our weather records

Stockport Weather History for the Previous 24 Hours

Scroll right to see more
 ConditionsComfort  
Time TempWeatherWind HumidityBarometerVisibility
3:50 am
Sun, Mar 29
37 °FChilly.14 mph56%30.74 "HgN/A
3:20 am37 °FChilly.10 mph60%30.74 "HgN/A
2:50 am37 °FPassing clouds.17 mph60%30.74 "HgN/A
2:20 am37 °FPassing clouds.13 mph60%30.74 "HgN/A
12:50 am37 °FChilly.18 mph65%30.74 "HgN/A
12:20 am37 °FPartly cloudy.18 mph75%30.72 "HgN/A
11:50 pm
Sat, Mar 28
39 °FPassing clouds.14 mph70%30.72 "HgN/A
11:20 pm39 °FPassing clouds.15 mph70%30.72 "HgN/A
10:50 pm39 °FPassing clouds.17 mph70%30.72 "HgN/A
10:20 pm39 °FPassing clouds.21 mph70%30.69 "HgN/A
9:50 pm39 °FPassing clouds.20 mph70%30.69 "HgN/A
9:20 pm39 °FPassing clouds.16 mph65%30.69 "HgN/A
8:50 pm39 °FChilly.16 mph70%30.66 "HgN/A
8:20 pm41 °FPartly cloudy.16 mph61%30.66 "HgN/A
7:50 pm41 °FQuite cool.20 mph61%30.66 "HgN/A
7:20 pm41 °FQuite cool.16 mph61%30.66 "HgN/A
6:50 pm41 °FPassing clouds.17 mph66%30.63 "HgN/A
6:20 pm43 °FPartly sunny.17 mph61%30.63 "HgN/A
5:50 pm45 °FPassing clouds.23 mph57%30.60 "HgN/A
5:20 pm45 °FOvercast.16 mph57%30.60 "HgN/A
4:50 pm46 °FScattered clouds.20 mph53%30.60 "HgN/A
4:20 pm46 °FPartly sunny.23 mph50%30.57 "HgN/A
3:50 pm46 °FCool.20 mph57%30.57 "HgN/A
3:20 pm48 °FOvercast.20 mph50%30.57 "HgN/A
2:50 pm48 °FBroken clouds.18 mph54%30.57 "HgN/A
2:20 pm48 °FPassing clouds.21 mph58%30.57 "HgN/A
1:50 pm50 °FOvercast.18 mph58%30.54 "HgN/A
1:20 pm48 °FPartly sunny.16 mph58%30.54 "HgN/A
12:50 pm50 °FMostly cloudy.17 mph50%30.54 "HgN/A
12:20 pm50 °FBroken clouds.15 mph54%30.54 "HgN/A
11:50 am50 °FPartly sunny.17 mph54%30.54 "HgN/A
11:20 am48 °FOvercast.17 mph58%30.54 "HgN/A
10:50 am48 °FPartly sunny.17 mph62%30.54 "HgN/A
10:20 am46 °FPartly sunny.17 mph66%30.54 "HgN/A
9:50 am46 °FOvercast.16 mph62%30.51 "HgN/A
9:20 am46 °FMostly cloudy.18 mph62%30.51 "HgN/A
8:50 am46 °FOvercast.21 mph62%30.51 "HgN/A
8:20 am45 °FMostly cloudy.20 mph71%30.51 "HgN/A
7:50 am45 °FMostly cloudy.18 mph71%30.48 "HgN/A
7:20 am45 °FMostly cloudy.15 mph71%30.48 "HgN/A
6:50 am43 °FPartly sunny.9 mph71%30.48 "HgN/A
6:20 am41 °FQuite cool.8 mph76%30.48 "HgN/A
5:50 am43 °FQuite cool.9 mph71%30.45 "HgN/A
5:20 am43 °FPassing clouds.14 mph76%30.45 "HgN/A
Weather by CustomWeather, © 2020

See weather overview

Advertising